Time,TemperatureF,DewpointF,PressureIn,WindDirection,WindDirectionDegrees,WindSpeedMPH,WindSpeedGustMPH,Humidity,HourlyPrecipIn,Conditions,Clouds,dailyrainin,SoftwareType,DateUTC
2013-05-27 00:02:00,50.0,46.0,30.34,NNW,337,0.0,-999.0,85,-99.99,,,-99.99,,2013-05-27 04:02:00,
2013-05-27 00:12:00,50.0,46.0,30.34,NNW,337,0.0,-999.0,85,-99.99,,,-99.99,,2013-05-27 04:12:00,
2013-05-27 00:23:00,49.0,45.0,30.34,NNW,337,0.0,-999.0,86,-99.99,,,-99.99,,2013-05-27 04:23:00,
2013-05-27 00:33:00,49.0,45.0,30.34,NNW,337,0.0,-999.0,87,-99.99,,,-99.99,,2013-05-27 04:33:00,
2013-05-27 00:43:00,48.0,45.0,30.34,NNW,337,0.0,-999.0,88,-99.99,,,-99.99,,2013-05-27 04:43:00,
2013-05-27 00:53:00,48.0,45.0,30.34,NNW,337,0.0,-999.0,88,-99.99,,,-99.99,,2013-05-27 04:53:00,
2013-05-27 01:02:00,48.0,45.0,30.34,NNW,337,0.0,-999.0,88,-99.99,,,-99.99,,2013-05-27 05:02:00,
2013-05-27 01:12:00,48.0,45.0,30.34,NNW,337,0.0,-999.0,88,-99.99,,,-99.99,,2013-05-27 05:12:00,
2013-05-27 01:22:00,48.0,45.0,30.34,NNW,337,0.0,-999.0,89,-99.99,,,-99.99,,2013-05-27 05:22:00,
2013-05-27 01:32:00,47.0,45.0,30.34,NNW,337,0.0,-999.0,91,-99.99,,,-99.99,,2013-05-27 05:32:00,
2013-05-27 01:42:00,47.0,45.0,30.34,NNW,337,0.0,-999.0,91,-99.99,,,-99.99,,2013-05-27 05:42:00,
2013-05-27 01:52:00,47.0,45.0,30.35,NNW,337,0.0,-999.0,92,-99.99,,,-99.99,,2013-05-27 05:52:00,
2013-05-27 02:02:00,47.0,45.0,30.35,NNW,337,0.0,-999.0,92,-99.99,,,-99.99,,2013-05-27 06:02:00,
2013-05-27 02:11:00,47.0,45.0,30.35,NNW,337,0.0,-999.0,92,-99.99,,,-99.99,,2013-05-27 06:11:00,
2013-05-27 02:22:00,47.0,45.0,30.34,NNW,337,0.0,-999.0,91,-99.99,,,-99.99,,2013-05-27 06:22:00,
2013-05-27 02:32:00,47.0,45.0,30.34,NNW,337,0.0,-999.0,92,-99.99,,,-99.99,,2013-05-27 06:32:00,
2013-05-27 02:42:00,47.0,45.0,30.34,NNW,337,0.0,-999.0,92,-99.99,,,-99.99,,2013-05-27 06:42:00,
2013-05-27 02:52:00,47.0,45.0,30.33,NNW,337,0.0,-999.0,91,-99.99,,,-99.99,,2013-05-27 06:52:00,
2013-05-27 03:02:00,47.0,45.0,30.33,NNW,338,0.0,-999.0,91,-99.99,,,-99.99,,2013-05-27 07:02:00,
2013-05-27 03:11:00,47.0,45.0,30.33,NNW,338,0.0,-999.0,91,-99.99,,,-99.99,,2013-05-27 07:11:00,
2013-05-27 03:21:00,47.0,45.0,30.33,NNW,338,0.0,-999.0,91,-99.99,,,-99.99,,2013-05-27 07:21:00,
2013-05-27 03:32:00,46.0,44.0,30.33,NNW,338,0.0,-999.0,92,-99.99,,,-99.99,,2013-05-27 07:32:00,
2013-05-27 03:42:00,46.0,44.0,30.33,NNW,338,0.0,-999.0,92,-99.99,,,-99.99,,2013-05-27 07:42:00,
2013-05-27 03:53:00,46.0,44.0,30.33,NNW,338,0.0,-999.0,93,-99.99,,,-99.99,,2013-05-27 07:53:00,
2013-05-27 04:02:00,46.0,44.0,30.33,NNW,338,0.0,-999.0,93,-99.99,,,-99.99,,2013-05-27 08:02:00,
2013-05-27 04:11:00,46.0,44.0,30.33,NNW,338,0.0,-999.0,93,-99.99,,,-99.99,,2013-05-27 08:11:00,
2013-05-27 04:22:00,46.0,44.0,30.33,NNW,338,1.0,-999.0,94,-99.99,,,-99.99,,2013-05-27 08:22:00,
2013-05-27 04:33:00,45.0,43.0,30.33,NNW,338,0.0,-999.0,94,-99.99,,,-99.99,,2013-05-27 08:33:00,
2013-05-27 04:42:00,45.0,43.0,30.33,NNW,338,0.0,-999.0,94,-99.99,,,-99.99,,2013-05-27 08:42:00,
2013-05-27 04:52:00,45.0,43.0,30.33,NNW,338,0.0,-999.0,94,-99.99,,,-99.99,,2013-05-27 08:52:00,
2013-05-27 05:02:00,45.0,43.0,30.34,NNW,338,0.0,-999.0,94,-99.99,,,-99.99,,2013-05-27 09:02:00,
2013-05-27 05:11:00,45.0,44.0,30.35,NNW,338,0.0,-999.0,95,-99.99,,,-99.99,,2013-05-27 09:11:00,
2013-05-27 05:22:00,45.0,44.0,30.35,NNW,338,0.0,-999.0,95,-99.99,,,-99.99,,2013-05-27 09:22:00,
2013-05-27 05:33:00,45.0,44.0,30.35,NNW,338,0.0,-999.0,95,-99.99,,,-99.99,,2013-05-27 09:33:00,
2013-05-27 05:42:00,45.0,44.0,30.35,NNW,338,0.0,-999.0,95,-99.99,,,-99.99,,2013-05-27 09:42:00,
2013-05-27 05:53:00,44.0,43.0,30.35,NNW,338,0.0,-999.0,95,-99.99,,,-99.99,,2013-05-27 09:53:00,
2013-05-27 06:03:00,45.0,44.0,30.36,NNW,338,0.0,-999.0,95,-99.99,,,-99.99,,2013-05-27 10:03:00,
2013-05-27 06:12:00,45.0,44.0,30.36,NNW,338,0.0,-999.0,95,-99.99,,,-99.99,,2013-05-27 10:12:00,
2013-05-27 06:23:00,44.0,42.0,30.36,NNW,338,0.0,-999.0,93,-99.99,,,-99.99,,2013-05-27 10:23:00,
2013-05-27 06:32:00,44.0,43.0,30.36,NNW,338,0.0,-999.0,95,-99.99,,,-99.99,,2013-05-27 10:32:00,
2013-05-27 06:42:00,44.0,43.0,30.36,NNW,338,0.0,-999.0,95,-99.99,,,-99.99,,2013-05-27 10:42:00,
2013-05-27 06:52:00,44.0,43.0,30.36,NNW,338,0.0,-999.0,95,-99.99,,,-99.99,,2013-05-27 10:52:00,
2013-05-27 07:02:00,45.0,44.0,30.36,NNW,338,0.0,-999.0,96,-99.99,,,-99.99,,2013-05-27 11:02:00,
2013-05-27 07:11:00,45.0,44.0,30.36,NNW,338,0.0,-999.0,96,-99.99,,,-99.99,,2013-05-27 11:11:00,
2013-05-27 07:22:00,45.0,44.0,30.36,NNW,338,0.0,-999.0,96,-99.99,,,-99.99,,2013-05-27 11:22:00,
2013-05-27 07:32:00,45.0,45.0,30.37,NNW,338,0.0,-999.0,100,-99.99,,,-99.99,,2013-05-27 11:32:00,
2013-05-27 07:42:00,45.0,45.0,30.37,NNW,338,0.0,-999.0,100,-99.99,,,-99.99,,2013-05-27 11:42:00,
2013-05-27 07:52:00,45.0,44.0,30.37,NNW,338,0.0,-999.0,96,-99.99,,,-99.99,,2013-05-27 11:52:00,
2013-05-27 08:01:00,46.0,45.0,30.38,NNW,338,0.0,-999.0,96,-99.99,,,-99.99,,2013-05-27 12:01:00,
2013-05-27 08:11:00,46.0,45.0,30.38,NNW,338,0.0,-999.0,96,-99.99,,,-99.99,,2013-05-27 12:11:00,
2013-05-27 08:22:00,46.0,45.0,30.38,NNW,338,0.0,-999.0,96,-99.99,,,-99.99,,2013-05-27 12:22:00,
2013-05-27 08:32:00,47.0,46.0,30.38,NNW,338,0.0,-999.0,96,-99.99,,,-99.99,,2013-05-27 12:32:00,
2013-05-27 08:42:00,47.0,46.0,30.38,NNW,338,0.0,-999.0,96,-99.99,,,-99.99,,2013-05-27 12:42:00,
2013-05-27 08:52:00,47.0,46.0,30.38,NNW,338,0.0,-999.0,95,-99.99,,,-99.99,,2013-05-27 12:52:00,
2013-05-27 09:01:00,48.0,46.0,30.39,NNW,340,0.0,-999.0,94,-99.99,,,-99.99,,2013-05-27 13:01:00,
2013-05-27 09:11:00,48.0,46.0,30.39,NNW,340,0.0,-999.0,94,-99.99,,,-99.99,,2013-05-27 13:11:00,
2013-05-27 09:22:00,49.0,47.0,30.39,NNW,344,0.0,-999.0,94,-99.99,,,-99.99,,2013-05-27 13:22:00,
2013-05-27 09:32:00,50.0,48.0,30.38,NNW,344,0.0,-999.0,93,-99.99,,,-99.99,,2013-05-27 13:32:00,
2013-05-27 09:42:00,50.0,48.0,30.38,NNW,344,0.0,-999.0,93,-99.99,,,-99.99,,2013-05-27 13:42:00,
2013-05-27 09:53:00,52.0,49.0,30.38,NNW,344,0.0,-999.0,91,-99.99,,,-99.99,,2013-05-27 13:53:00,
2013-05-27 10:02:00,54.0,48.0,30.37,SE,146,1.0,-999.0,79,-99.99,,,-99.99,,2013-05-27 14:02:00,
2013-05-27 10:11:00,54.0,48.0,30.37,SE,146,1.0,-999.0,79,-99.99,,,-99.99,,2013-05-27 14:11:00,
2013-05-27 10:22:00,58.0,49.0,30.38,SE,135,2.0,-999.0,73,-99.99,,,-99.99,,2013-05-27 14:22:00,
2013-05-27 10:32:00,60.0,49.0,30.37,South,184,2.0,-999.0,67,-99.99,,,-99.99,,2013-05-27 14:32:00,
2013-05-27 10:42:00,60.0,49.0,30.37,South,184,2.0,-999.0,67,-99.99,,,-99.99,,2013-05-27 14:42:00,
2013-05-27 10:52:00,61.0,51.0,30.37,South,175,2.0,-999.0,70,-99.99,,,-99.99,,2013-05-27 14:52:00,
2013-05-27 11:01:00,62.0,50.0,30.36,SSE,148,3.0,-999.0,64,-99.99,,,-99.99,,2013-05-27 15:01:00,
2013-05-27 11:11:00,63.0,51.0,30.35,WSW,247,2.0,-999.0,65,-99.99,,,-99.99,,2013-05-27 15:11:00,
2013-05-27 11:22:00,63.0,51.0,30.35,WSW,247,2.0,-999.0,65,-99.99,,,-99.99,,2013-05-27 15:22:00,
2013-05-27 11:33:00,64.0,52.0,30.35,SW,229,1.0,-999.0,66,-99.99,,,-99.99,,2013-05-27 15:33:00,
2013-05-27 11:43:00,64.0,52.0,30.35,SW,229,1.0,-999.0,66,-99.99,,,-99.99,,2013-05-27 15:43:00,
2013-05-27 11:53:00,65.0,53.0,30.35,WNW,302,2.0,-999.0,65,-99.99,,,-99.99,,2013-05-27 15:53:00,
2013-05-27 12:03:00,66.0,53.0,30.35,SSW,205,1.0,-999.0,64,-99.99,,,-99.99,,2013-05-27 16:03:00,
2013-05-27 12:12:00,66.0,53.0,30.35,SSW,205,1.0,-999.0,64,-99.99,,,-99.99,,2013-05-27 16:12:00,
2013-05-27 12:23:00,66.0,53.0,30.34,SW,219,5.0,-999.0,63,-99.99,,,-99.99,,2013-05-27 16:23:00,
2013-05-27 12:33:00,67.0,53.0,30.34,South,190,2.0,-999.0,60,-99.99,,,-99.99,,2013-05-27 16:33:00,
2013-05-27 12:42:00,67.0,53.0,30.34,South,190,2.0,-999.0,60,-99.99,,,-99.99,,2013-05-27 16:42:00,
2013-05-27 12:53:00,68.0,54.0,30.34,NW,311,1.0,-999.0,62,-99.99,,,-99.99,,2013-05-27 16:53:00,
2013-05-27 13:02:00,70.0,55.0,30.34,NW,311,5.0,-999.0,59,-99.99,,,-99.99,,2013-05-27 17:02:00,
2013-05-27 13:12:00,70.0,55.0,30.33,WNW,296,5.0,-999.0,59,-99.99,,,-99.99,,2013-05-27 17:12:00,
2013-05-27 13:22:00,70.0,55.0,30.33,WNW,296,5.0,-999.0,59,-99.99,,,-99.99,,2013-05-27 17:22:00,
2013-05-27 13:32:00,71.0,56.0,30.32,SSE,154,5.0,-999.0,59,-99.99,,,-99.99,,2013-05-27 17:32:00,
2013-05-27 13:43:00,71.0,56.0,30.32,SSE,154,5.0,-999.0,59,-99.99,,,-99.99,,2013-05-27 17:43:00,
2013-05-27 13:52:00,71.0,56.0,30.32,South,169,4.0,-999.0,59,-99.99,,,-99.99,,2013-05-27 17:52:00,
2013-05-27 14:02:00,71.0,57.0,30.31,SSE,148,5.0,-999.0,61,-99.99,,,-99.99,,2013-05-27 18:02:00,
2013-05-27 14:11:00,71.0,57.0,30.31,SSE,148,5.0,-999.0,61,-99.99,,,-99.99,,2013-05-27 18:11:00,
2013-05-27 14:22:00,72.0,57.0,30.30,South,177,5.0,-999.0,59,-99.99,,,-99.99,,2013-05-27 18:22:00,
2013-05-27 14:32:00,71.0,56.0,30.29,SW,225,4.0,-999.0,60,-99.99,,,-99.99,,2013-05-27 18:32:00,
2013-05-27 14:42:00,71.0,56.0,30.29,SW,225,4.0,-999.0,60,-99.99,,,-99.99,,2013-05-27 18:42:00,
2013-05-27 14:52:00,72.0,57.0,30.29,West,272,6.0,-999.0,59,-99.99,,,-99.99,,2013-05-27 18:52:00,
2013-05-27 15:01:00,72.0,57.0,30.29,SW,222,4.0,-999.0,60,-99.99,,,-99.99,,2013-05-27 19:01:00,
2013-05-27 15:11:00,72.0,57.0,30.29,SW,222,4.0,-999.0,60,-99.99,,,-99.99,,2013-05-27 19:11:00,
2013-05-27 15:22:00,72.0,57.0,30.29,WSW,252,6.0,-999.0,59,-99.99,,,-99.99,,2013-05-27 19:22:00,
2013-05-27 15:32:00,71.0,58.0,30.28,SE,134,4.0,-999.0,63,-99.99,,,-99.99,,2013-05-27 19:32:00,
2013-05-27 15:42:00,71.0,58.0,30.28,SE,134,4.0,-999.0,63,-99.99,,,-99.99,,2013-05-27 19:42:00,
2013-05-27 15:52:00,71.0,57.0,30.27,SSW,197,5.0,-999.0,62,-99.99,,,-99.99,,2013-05-27 19:52:00,
2013-05-27 16:01:00,72.0,57.0,30.27,SW,215,5.0,-999.0,60,-99.99,,,-99.99,,2013-05-27 20:01:00,
2013-05-27 16:11:00,72.0,57.0,30.27,SW,215,5.0,-999.0,60,-99.99,,,-99.99,,2013-05-27 20:11:00,
2013-05-27 16:22:00,72.0,57.0,30.27,SW,221,5.0,-999.0,60,-99.99,,,-99.99,,2013-05-27 20:22:00,
2013-05-27 16:32:00,71.0,58.0,30.26,SE,142,3.0,-999.0,64,-99.99,,,-99.99,,2013-05-27 20:32:00,
2013-05-27 16:42:00,72.0,58.0,30.25,SSW,213,5.0,-999.0,61,-99.99,,,-99.99,,2013-05-27 20:42:00,
2013-05-27 16:53:00,72.0,58.0,30.25,SSW,213,5.0,-999.0,61,-99.99,,,-99.99,,2013-05-27 20:53:00,
2013-05-27 17:01:00,72.0,58.0,30.25,SSW,212,7.0,-999.0,61,-99.99,,,-99.99,,2013-05-27 21:01:00,
2013-05-27 17:12:00,73.0,60.0,30.25,South,181,7.0,-999.0,63,-99.99,,,-99.99,,2013-05-27 21:12:00,
2013-05-27 17:21:00,73.0,60.0,30.25,South,181,7.0,-999.0,63,-99.99,,,-99.99,,2013-05-27 21:21:00,
2013-05-27 17:33:00,73.0,58.0,30.25,ESE,122,7.0,-999.0,60,-99.99,,,-99.99,,2013-05-27 21:33:00,
2013-05-27 17:43:00,72.0,58.0,30.25,SSE,163,5.0,-999.0,61,-99.99,,,-99.99,,2013-05-27 21:43:00,
2013-05-27 17:53:00,72.0,58.0,30.25,SSE,163,5.0,-999.0,61,-99.99,,,-99.99,,2013-05-27 21:53:00,
2013-05-27 18:02:00,72.0,59.0,30.25,SW,230,4.0,-999.0,63,-99.99,,,-99.99,,2013-05-27 22:02:00,
2013-05-27 18:13:00,71.0,58.0,30.25,SSW,206,5.0,-999.0,63,-99.99,,,-99.99,,2013-05-27 22:13:00,
2013-05-27 18:23:00,71.0,58.0,30.25,SSW,206,5.0,-999.0,63,-99.99,,,-99.99,,2013-05-27 22:23:00,
2013-05-27 18:33:00,70.0,57.0,30.25,SW,219,4.0,-999.0,64,-99.99,,,-99.99,,2013-05-27 22:33:00,
2013-05-27 18:42:00,70.0,57.0,30.25,SW,219,4.0,-999.0,64,-99.99,,,-99.99,,2013-05-27 22:42:00,
2013-05-27 18:53:00,70.0,58.0,30.25,SW,216,4.0,-999.0,66,-99.99,,,-99.99,,2013-05-27 22:53:00,
2013-05-27 19:02:00,71.0,59.0,30.24,SSE,165,3.0,-999.0,67,-99.99,,,-99.99,,2013-05-27 23:02:00,
2013-05-27 19:12:00,71.0,59.0,30.24,SSE,165,3.0,-999.0,67,-99.99,,,-99.99,,2013-05-27 23:12:00,
2013-05-27 19:22:00,71.0,59.0,30.23,SSE,147,4.0,-999.0,65,-99.99,,,-99.99,,2013-05-27 23:22:00,
2013-05-27 19:32:00,70.0,57.0,30.23,SE,144,5.0,-999.0,64,-99.99,,,-99.99,,2013-05-27 23:32:00,
2013-05-27 19:42:00,70.0,57.0,30.23,SE,144,5.0,-999.0,64,-99.99,,,-99.99,,2013-05-27 23:42:00,
2013-05-27 19:52:00,70.0,58.0,30.23,SSE,159,4.0,-999.0,66,-99.99,,,-99.99,,2013-05-27 23:52:00,
2013-05-27 20:01:00,69.0,57.0,30.24,SSE,150,6.0,-999.0,66,-99.99,,,-99.99,,2013-05-28 00:01:00,
2013-05-27 20:11:00,69.0,57.0,30.24,SSE,150,6.0,-999.0,66,-99.99,,,-99.99,,2013-05-28 00:11:00,
2013-05-27 20:22:00,68.0,57.0,30.24,South,173,4.0,-999.0,68,-99.99,,,-99.99,,2013-05-28 00:22:00,
2013-05-27 20:32:00,67.0,56.0,30.24,SE,132,3.0,-999.0,69,-99.99,,,-99.99,,2013-05-28 00:32:00,
2013-05-27 20:42:00,67.0,56.0,30.24,SE,132,3.0,-999.0,69,-99.99,,,-99.99,,2013-05-28 00:42:00,
2013-05-27 20:52:00,67.0,57.0,30.24,South,175,4.0,-999.0,70,-99.99,,,-99.99,,2013-05-28 00:52:00,
2013-05-27 21:01:00,66.0,56.0,30.25,SSE,151,2.0,-999.0,71,-99.99,,,-99.99,,2013-05-28 01:01:00,
2013-05-27 21:11:00,66.0,56.0,30.25,SSE,151,2.0,-999.0,71,-99.99,,,-99.99,,2013-05-28 01:11:00,
2013-05-27 21:22:00,66.0,57.0,30.26,SE,130,2.0,-999.0,72,-99.99,,,-99.99,,2013-05-28 01:22:00,
2013-05-27 21:32:00,65.0,56.0,30.26,SSE,147,0.0,-999.0,74,-99.99,,,-99.99,,2013-05-28 01:32:00,
2013-05-27 21:42:00,65.0,56.0,30.26,SSE,147,0.0,-999.0,74,-99.99,,,-99.99,,2013-05-28 01:42:00,
2013-05-27 21:52:00,64.0,56.0,30.27,SE,141,1.0,-999.0,76,-99.99,,,-99.99,,2013-05-28 01:52:00,
2013-05-27 22:02:00,64.0,56.0,30.29,SE,134,0.0,-999.0,76,-99.99,,,-99.99,,2013-05-28 02:02:00,
2013-05-27 22:11:00,64.0,56.0,30.29,SE,134,0.0,-999.0,76,-99.99,,,-99.99,,2013-05-28 02:11:00,
2013-05-27 22:22:00,63.0,56.0,30.29,SE,134,0.0,-999.0,79,-99.99,,,-99.99,,2013-05-28 02:22:00,
2013-05-27 22:32:00,63.0,57.0,30.29,SE,134,0.0,-999.0,80,-99.99,,,-99.99,,2013-05-28 02:32:00,
2013-05-27 22:42:00,63.0,57.0,30.29,SE,134,0.0,-999.0,80,-99.99,,,-99.99,,2013-05-28 02:42:00,
2013-05-27 22:52:00,63.0,57.0,30.30,SE,134,0.0,-999.0,80,-99.99,,,-99.99,,2013-05-28 02:52:00,
2013-05-27 23:01:00,63.0,57.0,30.30,SE,134,0.0,-999.0,81,-99.99,,,-99.99,,2013-05-28 03:01:00,
2013-05-27 23:11:00,63.0,57.0,30.30,SE,134,0.0,-999.0,81,-99.99,,,-99.99,,2013-05-28 03:11:00,
2013-05-27 23:22:00,62.0,56.0,30.30,SE,128,1.0,-999.0,81,-99.99,,,-99.99,,2013-05-28 03:22:00,
2013-05-27 23:33:00,62.0,56.0,30.30,SE,128,0.0,-999.0,81,-99.99,,,-99.99,,2013-05-28 03:33:00,
2013-05-27 23:43:00,62.0,56.0,30.30,SE,128,0.0,-999.0,81,-99.99,,,-99.99,,2013-05-28 03:43:00,
2013-05-27 23:53:00,62.0,57.0,30.29,SE,129,1.0,-999.0,83,-99.99,,,-99.99,,2013-05-28 03:53:00,